Regional Weather Roundup
Issued by NWS

Home | Current Version | Previous Version | Text Only | Print | Product List | Glossary Off
Versions: 1 2 3 4 5 6 7 8 9 10 11 12 13 14 15 16 17 18 19 20 21 22 23 24 25 26 27 28 29 30 31 32 33 34 35 36 37 38 39 40 41 42 43 44 45 46 47 48 49 50

000
ASUS43 KIND 210359
RWRIN

WEATHER ROUNDUP FOR INDIANA
NATIONAL WEATHER SERVICE INDIANAPOLIS IN
1200 AM EDT THU AUG 21 2014

NOTE: "FAIR" INDICATES FEW OR NO CLOUDS BELOW 12,000 FEET WITH NO
SIGNIFICANT WEATHER AND/OR OBSTRUCTIONS TO VISIBILITY.

* - STATION DOES NOT REPORT WEATHER SUCH AS PRECIPITATION OR FOG.

+ - STATION NOT QUALITY CONTROLLED BY THE NATIONAL WEATHER SERVICE.
    USE DATA WITH CAUTION...ESPECIALLY DEWPOINT AND RELATIVE
    HUMIDITY OBSERVATIONS.

INZ001>003-010>013-019-020-210500-
NORTHWEST INDIANA

CITY           SKY/WX    TMP DP  RH WIND       PRES   REMARKS
KNOX *+        CLEAR     71  67  87 SW5       29.98R
MONTICELLO +   MOCLDY    69  68  96 S5        30.00R
RENSSELAER +   MOCLDY    68  68 100 CALM      29.99S
VALPARAISO     PTCLDY    72  67  84 SW3       29.98R

$$

LMZ046-743>745-210500-
SOUTHERN LAKE MICHIGAN

STATION/POSITION TIME  TEMP WIND        PRES
                       AIR  DIR/SP/G
                 (UTC) (F)  (DEG/KT/KT) (MB)
MICHIGAN CITY    0300   76  200/ 12/ 14   N/A

$$

INZ004-005-014>016-021>024-210500-
NORTH CENTRAL INDIANA

CITY           SKY/WX    TMP DP  RH WIND       PRES   REMARKS
GOSHEN         MOCLDY    75  69  81 SW9       29.99R
SOUTH BEND     CLOUDY    76  67  73 SW9       29.98R
WARSAW +       CLEAR     73  70  88 SW5       30.00R

$$

INZ006>009-017-018-025>027-210500-
NORTHEAST INDIANA

CITY           SKY/WX    TMP DP  RH WIND       PRES   REMARKS
ANGOLA *+      PTCLDY    70  61  73 CALM      29.99R
FORT WAYNE     MOCLDY    70  67  90 SW7       30.00R

$$

INZ028-029-035-036-043>045-051>053-210500-
WEST CENTRAL INDIANA

CITY           SKY/WX    TMP DP  RH WIND       PRES   REMARKS
GREENCASTLE +  CLOUDY    68  68 100 CALM      30.03R
LAFAYETTE      CLOUDY    70  68  93 CALM      30.00R
TERRE HAUTE    CLOUDY    72  68  87 S5        30.01S

$$

INZ030>032-037>040-046>048-054>057-064-065-210500-
CENTRAL INDIANA

CITY           SKY/WX    TMP DP  RH WIND       PRES   REMARKS
FRANKFORT +    CLOUDY   N/A N/A N/A CALM      30.04R
INDIANAPOLIS   CLOUDY    73  68  84 S5        30.01S
-EAGLE CREEK   CLOUDY    73  67  81 CALM      30.02R
KOKOMO *+      PTCLDY    68  64  88 S5        30.02R
MT COMFORT *+  CLOUDY    72  72 100 CALM      30.04S
SHELBYVILLE    CLOUDY    74  32  21 S7        30.03S

$$

INZ033-034-041-042-049-050-058-059-210500-
EAST CENTRAL INDIANA

CITY           SKY/WX    TMP DP  RH WIND       PRES   REMARKS
MUNCIE         PTCLDY    72  66  81 SW5       30.02S

$$

INZ060-061-067>069-081>083-085>088-210500-
SOUTHWEST INDIANA

CITY           SKY/WX    TMP DP  RH WIND       PRES   REMARKS
EVANSVILLE     PTCLDY    77  71  82 S6        30.03S

$$

INZ062-063-066-070>080-084-089>092-210500-
SOUTH CENTRAL AND SOUTHEAST INDIANA

CITY           SKY/WX    TMP DP  RH WIND       PRES   REMARKS
BLOOMINGTON    CLOUDY    73  69  87 SW6       30.03F

$$




USA.gov is the U.S. government's official web portal to all federal, state and local government web resources and services.